AirNav   Pilot Hours Calculator
 
 395 users online  

23CN Douthitt Strip Airport
El Centro, California, USA

GOING TO EL CENTRO?


FAA INFORMATION EFFECTIVE 05 DECEMBER 2019

Location

FAA Identifier: 23CN
Lat/Long: 32-47-20.1990N 115-31-46.9810W
32-47.336650N 115-31.783017W
32.7889442,-115.5297169
(estimated)
Elevation: 45 ft. / 14 m (estimated)
Variation: 13E (1985)
From city: 1 mile E of EL CENTRO, CA
Time zone: UTC -8 (UTC -7 during Daylight Saving Time)
Zip code: 92243

Airport Operations

Airport use: Private use. Permission required prior to landing
Activation date: 06/1948
Control tower: no
ARTCC: LOS ANGELES CENTER
FSS: SAN DIEGO FLIGHT SERVICE STATION
Attendance: UNATNDD
Wind indicator: yes
Segmented circle: yes

Airport Communications

WX ASOS at IPL (4 nm NW): 132.175 (760-355-2851)

Nearby radio navigation aids

VOR radial/distance  VOR name  Freq  Var
IPLr322/2.6IMPERIAL VORTAC115.9014E

Airport Services

Airframe service: MAJOR
Powerplant service: MAJOR

Runway Information

Runway 4/22

Dimensions: 1800 x 100 ft. / 549 x 30 m
Surface: dirt
RUNWAY 4  RUNWAY 22
Traffic pattern: leftleft

Runway 8/26

Dimensions: 1400 x 100 ft. / 427 x 30 m
Surface: dirt
Runway edge markings: RUNWAY MARKED WITH R.
RUNWAY 8  RUNWAY 26
Traffic pattern: leftleft

Airport Ownership and Management from official FAA records

Ownership: Privately-owned
Owner: R. DOUTHITT ENT. INC.
717 SANDALWOOD DR
EL CENTRO, CA 92244
Phone (760) 562-0123
Manager: BOB DOUTHITT
717 SANDALWOOD DR
EL CENTRO, CA 92243
Phone (760) 562-0123

Airport Operational Statistics

Aircraft based on the field: 23
Single engine airplanes: 21
Ultralights: 2
    

Additional Remarks

TREES NEAR RWY.
FOR CD CTC LOS ANGELES ARTCC AT 661-575-2079.

Instrument Procedures

There are no published instrument procedures at 23CN.

Some nearby airports with instrument procedures:

KIPL - Imperial County Airport (4 nm NW)
KNJK - El Centro NAF Airport (Vraciu Field) (7 nm W)
KBWC - Brawley Municipal Airport (12 nm N)
KCLR - Cliff Hatfield Memorial Airport (21 nm N)
KNYL - Yuma Marine Corps Air Station/Yuma International Airport (47 nm E)
 
Loc | Ops | Rwys | IFR | FBO | Links
Com | Nav | Svcs | Stats | Notes
Area around 23CN (Douthitt Strip Airport)
 
Road maps at: MapQuest Bing Google
 
Aerial photo
No photo
 
Sectional chart

 
Airport distance calculator
Flying to Douthitt Strip Airport? Find the distance to fly.

From to 23CN

Sunrise and sunset
Times for 14-Dec-2019
 Local
(UTC-8)
 Zulu
(UTC)
Morning civil twilight06:1014:10
Sunrise06:3814:38
Sunset16:3600:36
Evening civil twilight17:0301:03

Current date and time
Zulu (UTC)  15-Dec-2019 05:43:51
Local (UTC-8)  14-Dec-2019 21:43:51
 
METAR
KIPL 
4nm NW 
150453Z AUTO 26004KT 7SM CLR 16/06 A2981 RMK AO2 SLP094 T01560061
KNJK 
7nm W 
150456Z AUTO 24010KT 10SM CLR 16/04 A2984 RMK AO2 SLP119 T01610044
MMML 
17nm SE 
150443Z 29016KT 10SM SKC 16/06 A2981
TAF
KIPL 
4nm NW 
142105Z 1421/1518 VRB06KT P6SM FEW250 FM142200 25010KT P6SM FEW100 SCT200 FM150300 27017G25KT P6SM FEW100 SCT200 FM151200 27013KT P6SM SKC
KNJK 
7nm W 
1501/1515 26019G26KT 9999 FEW250 530009 530909 551809 QNH2970INS TEMPO 1501/1507 25017G22KT BECMG 1511/1513 26017G24KT 9999 FEW250 530009 530909 551809 QNH2975INS TEMPO 1513/1515 27012KT T20/1501Z T09/1514Z AMD 0122 FS30118
MMML 
17nm SE 
141627Z 1418/1518 26005KT P6SM BKN200 BECMG 1421/1422 22010KT FM150600 29005KT P6SM BKN250 FM151700 34010KT P6SM SKC
NOTAMs
Click for the latest NOTAMs
NOTAMs are issued by the DoD/FAA and will open in a separate window not controlled by AirNav.

 

 
 

Would you like to see your business listed on this page?

 If your business provides an interesting product or service to pilots, flight crews, aircraft, or users of the Douthitt Strip Airport, you should consider listing it here.  To start the listing process, click on the button below
 
Add a business
 

Other Pages about Douthitt Strip Airport

Update a link
 
Copyright © AirNav, LLC. All rights reserved. Privacy Policy  Contact